Regional Weather Roundup
Issued by NWS

Home | Current Version | Previous Version | Text Only | Print | Product List | Glossary Off
Versions: 1 2 3 4 5 6 7 8 9 10 11 12 13 14 15 16 17 18 19 20 21 22 23 24 25 26 27 28 29 30 31 32 33 34 35 36 37 38 39 40 41 42 43 44 45 46 47 48 49 50

000
ASUS43 KBIS 251210
RWRND
NORTH DAKOTA REGIONAL WEATHER ROUNDUP
NATIONAL WEATHER SERVICE EASTERN NORTH DAKOTA/GRAND FORKS ND
700 AM CDT THU MAY 25 2017

  NOTE: "FAIR" INDICATES FEW OR NO CLOUDS BELOW 12,000 FEET WITH NO
  SIGNIFICANT WEATHER AND/OR OBSTRUCTIONS TO VISIBILITY.

NDZ001>003-009>011-017-251300-
...NORTHWEST NORTH DAKOTA...

CITY           SKY/WX    TMP DP  RH WIND       PRES   REMARKS
WILLISTON      FAIR      48  46  93 S8        29.36S
6HR MIN TEMP:  46; 6HR MAX TEMP:  54;

MINOT          FAIR      51  48  89 SE8       29.37F
MINOT AFB      FAIR      50  50  98 S9        29.36F
6HR MIN TEMP:  50; 6HR MAX TEMP:  56; 6HR PCP:  0.04;

$$

NDZ018>021-031>035-040>046-251300-
...SOUTHWEST NORTH DAKOTA...

CITY           SKY/WX    TMP DP  RH WIND       PRES   REMARKS
BISMARCK       FAIR      49  46  90 SE6       29.41F
DICKINSON      FAIR      44  43  96 W9        29.41S
GARRISON         N/A     50  47  89 S12       29.38F
HETTINGER      FAIR      42  41  96 W6        29.44S FOG
$$

NDZ004>008-012>016-024-026-027-054-251300-
...NORTHEAST NORTH DAKOTA...

CITY           SKY/WX    TMP DP  RH WIND       PRES   REMARKS
GRAND FORKS    CLOUDY    52  44  74 SE18      29.53F
GRAND FORKS AF FAIR      49  43  77 SE13      29.53F
DEVILS LAKE    LGT RAIN  51  45  79 SE17G24   29.47F
$$

NDZ022-023-025-028>030-036>039-047>053-251300-
...SOUTHEAST NORTH DAKOTA...

CITY           SKY/WX    TMP DP  RH WIND       PRES   REMARKS
JAMESTOWN      PTSUNNY   51  44  77 SE15G24   29.45S
FARGO          FAIR      53  44  71 SE16G29   29.52F
WAHPETON       FAIR      50  43  76 SE16G22   29.56F
$$




USA.gov is the U.S. government's official web portal to all federal, state and local government web resources and services.